Time,TemperatureF,DewpointF,PressureIn,WindDirection,WindDirectionDegrees,WindSpeedMPH,WindSpeedGustMPH,Humidity,HourlyPrecipIn,Conditions,Clouds,dailyrainin,SoftwareType,DateUTC
2013-03-09 00:00:00,34.9,25.8,30.31,WNW,294,2.0,5.0,69,0.00,,,0.00,Wunderground v.1.15,2013-03-09 05:00:00,
2013-03-09 00:01:00,34.9,25.8,30.31,WNW,294,0.0,2.0,69,0.00,,,0.00,Wunderground v.1.15,2013-03-09 05:01:00,
2013-03-09 00:02:00,34.9,25.8,30.31,WNW,294,2.0,2.0,69,0.00,,,0.00,Wunderground v.1.15,2013-03-09 05:02:00,
2013-03-09 00:07:00,34.9,25.8,30.31,NNW,336,2.0,2.0,69,0.00,,,0.00,Wunderground v.1.15,2013-03-09 05:07:00,
2013-03-09 00:12:00,34.7,25.6,30.30,NW,306,1.0,3.0,69,0.00,,,0.00,Wunderground v.1.15,2013-03-09 05:12:00,
2013-03-09 00:17:00,34.7,25.9,30.30,NW,305,3.0,3.0,70,0.00,,,0.00,Wunderground v.1.15,2013-03-09 05:17:00,
2013-03-09 00:22:00,34.6,25.5,30.30,NNW,330,2.0,3.0,69,0.00,,,0.00,Wunderground v.1.15,2013-03-09 05:22:00,
2013-03-09 00:27:00,34.6,25.8,30.30,WNW,303,1.0,3.0,70,0.00,,,0.00,Wunderground v.1.15,2013-03-09 05:27:00,
2013-03-09 00:30:00,32.8,25.4,30.32,NW,315,1.0,3.0,74,0.00,,---,0.00,VWS V14.01,2013-03-09 05:30:00,
2013-03-09 00:33:00,34.4,25.6,30.30,WNW,300,3.0,3.0,70,0.00,,,0.00,Wunderground v.1.15,2013-03-09 05:33:00,
2013-03-09 00:38:00,34.4,25.3,30.30,NW,308,1.0,3.0,69,0.00,,,0.00,Wunderground v.1.15,2013-03-09 05:38:00,
2013-03-09 00:43:00,34.6,25.8,30.30,NW,305,1.0,3.0,70,0.00,,,0.00,Wunderground v.1.15,2013-03-09 05:43:00,
2013-03-09 00:48:00,34.6,25.8,30.30,NW,310,1.0,3.0,70,0.00,,,0.00,Wunderground v.1.15,2013-03-09 05:48:00,
2013-03-09 00:53:00,34.4,25.6,30.31,NW,308,2.0,2.0,70,0.00,,,0.00,Wunderground v.1.15,2013-03-09 05:53:00,
2013-03-09 00:58:00,34.3,25.9,30.31,NW,308,0.0,2.0,71,0.00,,,0.00,Wunderground v.1.15,2013-03-09 05:58:00,
2013-03-09 01:00:00,31.9,25.2,30.32,WNW,292,1.0,7.0,76,0.00,,---,0.00,VWS V14.01,2013-03-09 06:00:00,
2013-03-09 01:03:00,34.1,25.7,30.31,NW,308,1.0,1.0,71,0.00,,,0.00,Wunderground v.1.15,2013-03-09 06:03:00,
2013-03-09 01:08:00,33.8,25.7,30.31,NW,308,0.0,1.0,72,0.00,,,0.00,Wunderground v.1.15,2013-03-09 06:08:00,
2013-03-09 01:13:00,33.5,25.8,30.31,NW,308,1.0,2.0,73,0.00,,,0.00,Wunderground v.1.15,2013-03-09 06:13:00,
2013-03-09 01:18:00,33.4,25.7,30.32,WNW,302,1.0,2.0,73,0.00,,,0.00,Wunderground v.1.15,2013-03-09 06:18:00,
2013-03-09 01:24:00,33.1,25.7,30.32,NW,306,1.0,2.0,74,0.00,,,0.00,Wunderground v.1.15,2013-03-09 06:24:00,
2013-03-09 01:29:00,32.8,25.4,30.32,WNW,288,1.0,2.0,74,0.00,,,0.00,Wunderground v.1.15,2013-03-09 06:29:00,
2013-03-09 01:30:00,31.8,25.1,30.32,NW,315,1.0,5.0,76,0.00,,---,0.00,VWS V14.01,2013-03-09 06:30:00,
2013-03-09 01:34:00,32.7,25.6,30.32,SW,214,2.0,2.0,75,0.00,,,0.00,Wunderground v.1.15,2013-03-09 06:34:00,
2013-03-09 01:39:00,32.5,25.8,30.32,WNW,284,0.0,2.0,76,0.00,,,0.00,Wunderground v.1.15,2013-03-09 06:39:00,
2013-03-09 01:44:00,32.4,25.4,30.32,WNW,284,1.0,1.0,75,0.00,,,0.00,Wunderground v.1.15,2013-03-09 06:44:00,
2013-03-09 01:49:00,32.2,25.5,30.32,WNW,284,1.0,1.0,76,0.00,,,0.00,Wunderground v.1.15,2013-03-09 06:49:00,
2013-03-09 01:54:00,32.1,25.1,30.32,WSW,258,4.0,4.0,75,0.00,,,0.00,Wunderground v.1.15,2013-03-09 06:54:00,
2013-03-09 02:00:00,31.9,25.5,30.32,NW,305,1.0,1.0,77,0.00,,,0.00,Wunderground v.1.15,2013-03-09 07:00:00,
2013-03-09 02:05:00,31.9,25.5,30.32,West,278,2.0,2.0,77,0.00,,,0.00,Wunderground v.1.15,2013-03-09 07:05:00,
2013-03-09 02:10:00,31.9,25.2,30.31,NW,314,1.0,1.0,76,0.00,,,0.00,Wunderground v.1.15,2013-03-09 07:10:00,
2013-03-09 02:15:00,31.9,25.5,30.31,NW,311,0.0,2.0,77,0.00,,,0.00,Wunderground v.1.15,2013-03-09 07:15:00,
2013-03-09 02:20:00,31.8,25.4,30.31,NW,311,0.0,1.0,77,0.00,,,0.00,Wunderground v.1.15,2013-03-09 07:20:00,
2013-03-09 02:25:00,31.9,25.2,30.32,WNW,284,0.0,5.0,76,0.00,,,0.00,Wunderground v.1.15,2013-03-09 07:25:00,
2013-03-09 02:30:00,31.8,25.1,30.32,West,275,0.0,1.0,76,0.00,,,0.00,Wunderground v.1.15,2013-03-09 07:30:00,
2013-03-09 02:35:00,31.8,25.1,30.32,WNW,300,0.0,1.0,76,0.00,,,0.00,Wunderground v.1.15,2013-03-09 07:35:00,
2013-03-09 02:40:00,31.6,25.2,30.32,WNW,300,1.0,1.0,77,0.00,,,0.00,Wunderground v.1.15,2013-03-09 07:40:00,
2013-03-09 02:45:00,31.5,25.1,30.32,WNW,300,1.0,1.0,77,0.00,,,0.00,Wunderground v.1.15,2013-03-09 07:45:00,
2013-03-09 02:50:00,31.3,24.9,30.31,WNW,300,0.0,0.0,77,0.00,,,0.00,Wunderground v.1.15,2013-03-09 07:50:00,
2013-03-09 02:56:00,31.0,24.6,30.31,WNW,300,0.0,0.0,77,0.00,,,0.00,Wunderground v.1.15,2013-03-09 07:56:00,
2013-03-09 03:00:00,28.7,23.9,30.31,WNW,292,0.0,1.0,82,0.00,,---,0.00,VWS V14.01,2013-03-09 08:00:00,
2013-03-09 03:01:00,30.9,24.8,30.31,WNW,300,0.0,0.0,78,0.00,,,0.00,Wunderground v.1.15,2013-03-09 08:01:00,
2013-03-09 03:06:00,30.6,24.6,30.31,WNW,300,0.0,1.0,78,0.00,,,0.00,Wunderground v.1.15,2013-03-09 08:06:00,
2013-03-09 03:11:00,30.4,24.4,30.30,WNW,300,0.0,0.0,78,0.00,,,0.00,Wunderground v.1.15,2013-03-09 08:11:00,
2013-03-09 03:16:00,30.1,24.4,30.30,WNW,300,0.0,0.0,79,0.00,,,0.00,Wunderground v.1.15,2013-03-09 08:16:00,
2013-03-09 03:21:00,30.0,24.3,30.31,WNW,300,0.0,1.0,79,0.00,,,0.00,Wunderground v.1.15,2013-03-09 08:21:00,
2013-03-09 03:26:00,29.7,24.0,30.30,WNW,300,1.0,1.0,79,0.00,,,0.00,Wunderground v.1.15,2013-03-09 08:26:00,
2013-03-09 03:30:00,28.1,23.9,30.32,WNW,292,0.0,1.0,84,0.00,,---,0.00,VWS V14.01,2013-03-09 08:30:00,
2013-03-09 03:31:00,29.5,23.8,30.31,WNW,300,0.0,0.0,79,0.00,,,0.00,Wunderground v.1.15,2013-03-09 08:31:00,
2013-03-09 03:36:00,29.3,23.9,30.31,WNW,300,0.0,0.0,80,0.00,,,0.00,Wunderground v.1.15,2013-03-09 08:36:00,
2013-03-09 03:42:00,29.1,24.0,30.31,WNW,300,0.0,0.0,81,0.00,,,0.00,Wunderground v.1.15,2013-03-09 08:42:00,
2013-03-09 03:47:00,29.0,23.9,30.31,WNW,300,0.0,1.0,81,0.00,,,0.00,Wunderground v.1.15,2013-03-09 08:47:00,
2013-03-09 03:52:00,29.0,23.9,30.31,WNW,300,0.0,0.0,81,0.00,,,0.00,Wunderground v.1.15,2013-03-09 08:52:00,
2013-03-09 03:57:00,28.8,24.0,30.31,WNW,300,0.0,0.0,82,0.00,,,0.00,Wunderground v.1.15,2013-03-09 08:57:00,
2013-03-09 04:00:00,27.5,23.6,30.33,WNW,292,0.0,2.0,85,0.00,,---,0.00,VWS V14.01,2013-03-09 09:00:00,
2013-03-09 04:02:00,28.7,23.9,30.31,WNW,300,0.0,0.0,82,0.00,,,0.00,Wunderground v.1.15,2013-03-09 09:02:00,
2013-03-09 04:07:00,28.7,23.9,30.31,WNW,300,1.0,1.0,82,0.00,,,0.00,Wunderground v.1.15,2013-03-09 09:07:00,
2013-03-09 04:12:00,28.7,23.9,30.31,WNW,300,0.0,1.0,82,0.00,,,0.00,Wunderground v.1.15,2013-03-09 09:12:00,
2013-03-09 04:17:00,28.7,23.9,30.31,WNW,300,0.0,1.0,82,0.00,,,0.00,Wunderground v.1.15,2013-03-09 09:17:00,
2013-03-09 04:22:00,28.4,23.9,30.32,WNW,300,0.0,0.0,83,0.00,,,0.00,Wunderground v.1.15,2013-03-09 09:22:00,
2013-03-09 04:27:00,28.1,23.9,30.32,WNW,300,0.0,0.0,84,0.00,,,0.00,Wunderground v.1.15,2013-03-09 09:27:00,
2013-03-09 04:30:00,27.3,23.4,30.33,WNW,292,0.0,1.0,85,0.00,,---,0.00,VWS V14.01,2013-03-09 09:30:00,
2013-03-09 04:32:00,27.9,23.7,30.32,WNW,300,0.0,0.0,84,0.00,,,0.00,Wunderground v.1.15,2013-03-09 09:32:00,
2013-03-09 04:37:00,27.9,23.7,30.32,WNW,300,0.0,2.0,84,0.00,,,0.00,Wunderground v.1.15,2013-03-09 09:37:00,
2013-03-09 04:43:00,27.8,23.6,30.32,WNW,300,1.0,1.0,84,0.00,,,0.00,Wunderground v.1.15,2013-03-09 09:43:00,
2013-03-09 04:48:00,27.8,23.9,30.33,WNW,300,0.0,1.0,85,0.00,,,0.00,Wunderground v.1.15,2013-03-09 09:48:00,
2013-03-09 04:53:00,27.6,23.4,30.32,WNW,300,0.0,0.0,84,0.00,,,0.00,Wunderground v.1.15,2013-03-09 09:53:00,
2013-03-09 04:59:00,27.6,23.7,30.32,WNW,300,1.0,2.0,85,0.00,,,0.00,Wunderground v.1.15,2013-03-09 09:59:00,
2013-03-09 05:00:00,26.7,23.4,30.33,WNW,292,0.0,1.0,87,0.00,,---,0.00,VWS V14.01,2013-03-09 10:00:00,
2013-03-09 05:04:00,27.5,23.6,30.33,WNW,300,0.0,1.0,85,0.00,,,0.00,Wunderground v.1.15,2013-03-09 10:04:00,
2013-03-09 05:09:00,27.5,23.6,30.33,WNW,300,0.0,1.0,85,0.00,,,0.00,Wunderground v.1.15,2013-03-09 10:09:00,
2013-03-09 05:14:00,27.5,23.6,30.33,WNW,300,0.0,0.0,85,0.00,,,0.00,Wunderground v.1.15,2013-03-09 10:14:00,
2013-03-09 05:19:00,27.5,23.6,30.33,WNW,300,0.0,1.0,85,0.00,,,0.00,Wunderground v.1.15,2013-03-09 10:19:00,
2013-03-09 05:24:00,27.5,23.6,30.33,WNW,300,0.0,0.0,85,0.00,,,0.00,Wunderground v.1.15,2013-03-09 10:24:00,
2013-03-09 05:30:00,27.3,23.4,30.33,WNW,300,0.0,0.0,85,0.00,,,0.00,Wunderground v.1.15,2013-03-09 10:30:00,
2013-03-09 05:35:00,27.5,23.6,30.33,WNW,300,0.0,0.0,85,0.00,,,0.00,Wunderground v.1.15,2013-03-09 10:35:00,
2013-03-09 05:40:00,27.3,23.4,30.33,WNW,300,0.0,0.0,85,0.00,,,0.00,Wunderground v.1.15,2013-03-09 10:40:00,
2013-03-09 05:45:00,27.2,23.3,30.33,WNW,300,1.0,1.0,85,0.00,,,0.00,Wunderground v.1.15,2013-03-09 10:45:00,
2013-03-09 05:50:00,26.9,23.3,30.33,WNW,300,0.0,0.0,86,0.00,,,0.00,Wunderground v.1.15,2013-03-09 10:50:00,
2013-03-09 05:56:00,26.7,23.4,30.33,WNW,300,0.0,1.0,87,0.00,,,0.00,Wunderground v.1.15,2013-03-09 10:56:00,
2013-03-09 06:00:00,26.6,23.3,30.35,WNW,292,0.0,1.0,87,0.00,,---,0.00,VWS V14.01,2013-03-09 11:00:00,
2013-03-09 06:01:00,26.7,23.4,30.33,WNW,300,0.0,0.0,87,0.00,,,0.00,Wunderground v.1.15,2013-03-09 11:01:00,
2013-03-09 06:06:00,26.9,23.5,30.33,WNW,300,0.0,0.0,87,0.00,,,0.00,Wunderground v.1.15,2013-03-09 11:06:00,
2013-03-09 06:11:00,26.9,23.5,30.34,WNW,300,0.0,0.0,87,0.00,,,0.00,Wunderground v.1.15,2013-03-09 11:11:00,
2013-03-09 06:16:00,26.7,23.1,30.34,WNW,300,0.0,0.0,86,0.00,,,0.00,Wunderground v.1.15,2013-03-09 11:16:00,
2013-03-09 06:21:00,26.6,23.3,30.34,WNW,300,0.0,0.0,87,0.00,,,0.00,Wunderground v.1.15,2013-03-09 11:21:00,
2013-03-09 06:27:00,26.6,23.0,30.34,WNW,300,0.0,1.0,86,0.00,,,0.00,Wunderground v.1.15,2013-03-09 11:27:00,
2013-03-09 06:30:00,27.2,24.4,30.35,WNW,292,0.0,3.0,89,0.00,,---,0.00,VWS V14.01,2013-03-09 11:30:00,
2013-03-09 06:32:00,26.6,23.0,30.34,WNW,300,0.0,0.0,86,0.00,,,0.00,Wunderground v.1.15,2013-03-09 11:32:00,
2013-03-09 06:37:00,26.6,23.0,30.35,WNW,300,0.0,1.0,86,0.00,,,0.00,Wunderground v.1.15,2013-03-09 11:37:00,
2013-03-09 06:42:00,26.4,22.8,30.35,WNW,300,1.0,1.0,86,0.00,,,0.00,Wunderground v.1.15,2013-03-09 11:42:00,
2013-03-09 06:47:00,26.4,23.1,30.35,WNW,300,0.0,1.0,87,0.00,,,0.00,Wunderground v.1.15,2013-03-09 11:47:00,
2013-03-09 06:53:00,26.4,23.1,30.35,WNW,300,0.0,0.0,87,0.00,,,0.00,Wunderground v.1.15,2013-03-09 11:53:00,
2013-03-09 06:58:00,26.4,23.1,30.35,WNW,300,0.0,0.0,87,0.00,,,0.00,Wunderground v.1.15,2013-03-09 11:58:00,
2013-03-09 07:00:00,31.8,25.7,30.36,WSW,248,2.0,5.0,78,0.00,,---,0.00,VWS V14.01,2013-03-09 12:00:00,
2013-03-09 07:03:00,26.4,23.1,30.35,WNW,300,0.0,0.0,87,0.00,,,0.00,Wunderground v.1.15,2013-03-09 12:03:00,
2013-03-09 07:08:00,26.6,23.3,30.35,WNW,300,0.0,1.0,87,0.00,,,0.00,Wunderground v.1.15,2013-03-09 12:08:00,
2013-03-09 07:13:00,26.6,23.3,30.35,WNW,300,0.0,0.0,87,0.00,,,0.00,Wunderground v.1.15,2013-03-09 12:13:00,
2013-03-09 07:18:00,26.7,23.6,30.35,WNW,300,0.0,2.0,88,0.00,,,0.00,Wunderground v.1.15,2013-03-09 12:18:00,
2013-03-09 07:23:00,26.9,23.8,30.35,WNW,300,1.0,1.0,88,0.00,,,0.00,Wunderground v.1.15,2013-03-09 12:23:00,
2013-03-09 07:28:00,27.0,24.2,30.35,WSW,246,2.0,3.0,89,0.00,,,0.00,Wunderground v.1.15,2013-03-09 12:28:00,
2013-03-09 07:30:00,34.7,27.9,30.37,West,270,2.0,6.0,76,0.00,,---,0.00,VWS V14.01,2013-03-09 12:30:00,
2013-03-09 07:33:00,27.5,25.0,30.36,WSW,256,1.0,4.0,90,0.00,,,0.00,Wunderground v.1.15,2013-03-09 12:33:00,
2013-03-09 07:38:00,28.4,25.6,30.36,SW,225,3.0,4.0,89,0.00,,,0.00,Wunderground v.1.15,2013-03-09 12:38:00,
2013-03-09 07:44:00,29.4,25.4,30.35,SW,216,2.0,5.0,85,0.00,,,0.00,Wunderground v.1.15,2013-03-09 12:44:00,
2013-03-09 07:49:00,30.3,25.8,30.36,SW,231,4.0,5.0,83,0.00,,,0.00,Wunderground v.1.15,2013-03-09 12:49:00,
2013-03-09 07:54:00,30.9,25.8,30.35,West,259,3.0,4.0,81,0.00,,,0.00,Wunderground v.1.15,2013-03-09 12:54:00,
2013-03-09 08:00:00,31.6,25.5,30.36,WSW,248,3.0,4.0,78,0.00,,,0.00,Wunderground v.1.15,2013-03-09 13:00:00,
2013-03-09 08:05:00,32.4,26.3,30.37,WNW,290,2.0,5.0,78,0.00,,,0.00,Wunderground v.1.15,2013-03-09 13:05:00,
2013-03-09 08:10:00,32.8,26.1,30.37,SW,223,3.0,3.0,76,0.00,,,0.00,Wunderground v.1.15,2013-03-09 13:10:00,
2013-03-09 08:15:00,33.4,26.3,30.37,West,277,2.0,4.0,75,0.00,,,0.00,Wunderground v.1.15,2013-03-09 13:15:00,
2013-03-09 08:20:00,33.8,26.4,30.37,West,279,0.0,2.0,74,0.00,,,0.00,Wunderground v.1.15,2013-03-09 13:20:00,
2013-03-09 08:25:00,34.3,27.8,30.37,WSW,254,3.0,4.0,77,0.00,,,0.00,Wunderground v.1.15,2013-03-09 13:25:00,
2013-03-09 08:30:00,34.7,27.6,30.37,SW,236,2.0,3.0,75,0.00,,,0.00,Wunderground v.1.15,2013-03-09 13:30:00,
2013-03-09 08:35:00,35.2,28.1,30.37,SW,230,2.0,5.0,75,0.00,,,0.00,Wunderground v.1.15,2013-03-09 13:35:00,
2013-03-09 08:40:00,35.6,27.5,30.38,SW,233,2.0,3.0,72,0.00,,,0.00,Wunderground v.1.15,2013-03-09 13:40:00,
2013-03-09 08:45:00,36.0,27.8,30.38,SW,219,2.0,3.0,72,0.00,,,0.00,Wunderground v.1.15,2013-03-09 13:45:00,
2013-03-09 08:51:00,36.6,28.4,30.37,West,261,3.0,5.0,72,0.00,,,0.00,Wunderground v.1.15,2013-03-09 13:51:00,
2013-03-09 08:56:00,37.0,26.7,30.37,SW,221,1.0,5.0,66,0.00,,,0.00,Wunderground v.1.15,2013-03-09 13:56:00,
2013-03-09 09:00:00,42.6,23.8,30.36,NW,315,2.0,6.0,47,0.00,,---,0.00,VWS V14.01,2013-03-09 14:00:00,
2013-03-09 09:01:00,37.3,28.1,30.37,SW,221,1.0,2.0,69,0.00,,,0.00,Wunderground v.1.15,2013-03-09 14:01:00,
2013-03-09 09:06:00,37.9,27.2,30.37,NNE,15,2.0,3.0,65,0.00,,,0.00,Wunderground v.1.15,2013-03-09 14:06:00,
2013-03-09 09:11:00,38.3,26.4,30.37,NNW,327,1.0,2.0,62,0.00,,,0.00,Wunderground v.1.15,2013-03-09 14:11:00,
2013-03-09 09:16:00,38.9,26.2,30.37,NNW,331,1.0,2.0,60,0.00,,,0.00,Wunderground v.1.15,2013-03-09 14:16:00,
2013-03-09 09:21:00,39.3,25.3,30.37,North,355,1.0,3.0,57,0.00,,,0.00,Wunderground v.1.15,2013-03-09 14:21:00,
2013-03-09 09:26:00,39.9,25.5,30.37,NNW,338,2.0,4.0,56,0.00,,,0.00,Wunderground v.1.15,2013-03-09 14:26:00,
2013-03-09 09:30:00,43.3,22.9,30.35,North,0,2.0,5.0,44,0.00,,---,0.00,VWS V14.01,2013-03-09 14:30:00,
2013-03-09 09:31:00,40.3,25.4,30.37,West,277,2.0,2.0,55,0.00,,,0.00,Wunderground v.1.15,2013-03-09 14:31:00,
2013-03-09 09:37:00,40.6,26.1,30.37,WNW,285,0.0,5.0,56,0.00,,,0.00,Wunderground v.1.15,2013-03-09 14:37:00,
2013-03-09 09:42:00,40.9,25.5,30.36,West,273,2.0,2.0,54,0.00,,,0.00,Wunderground v.1.15,2013-03-09 14:42:00,
2013-03-09 09:47:00,41.5,26.1,30.36,NNW,342,4.0,5.0,54,0.00,,,0.00,Wunderground v.1.15,2013-03-09 14:47:00,
2013-03-09 09:52:00,42.1,25.7,30.36,ENE,67,3.0,4.0,52,0.00,,,0.00,Wunderground v.1.15,2013-03-09 14:52:00,
2013-03-09 09:57:00,42.5,24.7,30.36,North,350,1.0,5.0,49,0.00,,,0.00,Wunderground v.1.15,2013-03-09 14:57:00,
2013-03-09 10:00:00,44.2,21.4,30.34,West,270,2.0,5.0,40,0.00,,---,0.00,VWS V14.01,2013-03-09 15:00:00,
2013-03-09 10:02:00,42.8,23.9,30.36,NE,34,3.0,3.0,47,0.00,,,0.00,Wunderground v.1.15,2013-03-09 15:02:00,
2013-03-09 10:07:00,42.8,23.4,30.36,WNW,301,4.0,4.0,46,0.00,,,0.00,Wunderground v.1.15,2013-03-09 15:07:00,
2013-03-09 10:12:00,42.9,24.0,30.36,North,5,2.0,5.0,47,0.00,,,0.00,Wunderground v.1.15,2013-03-09 15:12:00,
2013-03-09 10:17:00,43.2,23.3,30.36,North,5,1.0,5.0,45,0.00,,,0.00,Wunderground v.1.15,2013-03-09 15:17:00,
2013-03-09 10:23:00,43.2,21.6,30.36,North,11,1.0,3.0,42,0.00,,,0.00,Wunderground v.1.15,2013-03-09 15:23:00,
2013-03-09 10:28:00,43.2,24.8,30.35,ENE,57,4.0,4.0,48,0.00,,,0.00,Wunderground v.1.15,2013-03-09 15:28:00,
2013-03-09 10:30:00,45.8,24.0,30.34,NW,315,2.0,6.0,42,0.00,,---,0.00,VWS V14.01,2013-03-09 15:30:00,
2013-03-09 10:33:00,43.3,26.4,30.35,West,276,1.0,3.0,51,0.00,,,0.00,Wunderground v.1.15,2013-03-09 15:33:00,
2013-03-09 10:38:00,43.5,26.1,30.35,WNW,296,3.0,4.0,50,0.00,,,0.00,Wunderground v.1.15,2013-03-09 15:38:00,
2013-03-09 10:43:00,43.5,25.1,30.34,ENE,58,1.0,3.0,48,0.00,,,0.00,Wunderground v.1.15,2013-03-09 15:43:00,
2013-03-09 10:48:00,43.8,25.4,30.34,WNW,292,2.0,3.0,48,0.00,,,0.00,Wunderground v.1.15,2013-03-09 15:48:00,
2013-03-09 10:53:00,44.1,23.0,30.34,WSW,250,1.0,4.0,43,0.00,,,0.00,Wunderground v.1.15,2013-03-09 15:53:00,
2013-03-09 10:58:00,44.2,22.5,30.34,NNE,17,1.0,4.0,42,0.00,,,0.00,Wunderground v.1.15,2013-03-09 15:58:00,
2013-03-09 11:00:00,46.8,23.2,30.33,West,270,2.0,6.0,39,0.00,,---,0.00,VWS V14.01,2013-03-09 16:00:00,
2013-03-09 11:03:00,44.3,23.2,30.34,NE,34,0.0,2.0,43,0.00,,,0.00,Wunderground v.1.15,2013-03-09 16:03:00,
2013-03-09 11:08:00,44.5,22.8,30.34,NE,38,2.0,4.0,42,0.00,,,0.00,Wunderground v.1.15,2013-03-09 16:08:00,
2013-03-09 11:13:00,44.8,23.1,30.34,NE,34,2.0,3.0,42,0.00,,,0.00,Wunderground v.1.15,2013-03-09 16:13:00,
2013-03-09 11:18:00,45.1,23.9,30.34,WNW,288,2.0,3.0,43,0.00,,,0.00,Wunderground v.1.15,2013-03-09 16:18:00,
2013-03-09 11:24:00,45.4,22.5,30.34,NNW,333,2.0,5.0,40,0.00,,,0.00,Wunderground v.1.15,2013-03-09 16:24:00,
2013-03-09 11:29:00,45.7,23.9,30.34,NW,320,1.0,5.0,42,0.00,,,0.00,Wunderground v.1.15,2013-03-09 16:29:00,
2013-03-09 11:30:00,47.7,25.8,30.32,NE,45,2.0,5.0,42,0.00,,---,0.00,VWS V14.01,2013-03-09 16:30:00,
2013-03-09 11:34:00,45.8,23.4,30.34,NNW,340,3.0,5.0,41,0.00,,,0.00,Wunderground v.1.15,2013-03-09 16:34:00,
2013-03-09 11:39:00,45.8,21.6,30.34,WSW,249,2.0,6.0,38,0.00,,,0.00,Wunderground v.1.15,2013-03-09 16:39:00,
2013-03-09 11:44:00,45.8,23.4,30.34,North,9,3.0,3.0,41,0.00,,,0.00,Wunderground v.1.15,2013-03-09 16:44:00,
2013-03-09 11:49:00,46.1,21.2,30.34,NNE,30,1.0,3.0,37,0.00,,,0.00,Wunderground v.1.15,2013-03-09 16:49:00,
2013-03-09 11:54:00,46.4,23.9,30.34,WSW,238,2.0,6.0,41,0.00,,,0.00,Wunderground v.1.15,2013-03-09 16:54:00,
2013-03-09 11:59:00,46.8,22.5,30.33,West,272,2.0,6.0,38,0.00,,,0.00,Wunderground v.1.15,2013-03-09 16:59:00,
2013-03-09 12:00:00,48.8,27.3,30.30,NW,315,2.0,6.0,43,0.00,,---,0.00,VWS V14.01,2013-03-09 17:00:00,
2013-03-09 12:04:00,47.0,26.2,30.33,North,360,3.0,4.0,44,0.00,,,0.00,Wunderground v.1.15,2013-03-09 17:04:00,
2013-03-09 12:09:00,47.1,22.8,30.33,NNW,341,2.0,4.0,38,0.00,,,0.00,Wunderground v.1.15,2013-03-09 17:09:00,
2013-03-09 12:14:00,47.4,21.7,30.33,NNE,33,2.0,3.0,36,0.00,,,0.00,Wunderground v.1.15,2013-03-09 17:14:00,
2013-03-09 12:20:00,47.6,23.2,30.32,WSW,248,3.0,3.0,38,0.00,,,0.00,Wunderground v.1.15,2013-03-09 17:20:00,
2013-03-09 12:25:00,47.7,22.0,30.32,SW,220,1.0,5.0,36,0.00,,,0.00,Wunderground v.1.15,2013-03-09 17:25:00,
2013-03-09 12:30:00,47.7,25.7,30.31,SSE,155,2.0,2.0,42,0.00,,,0.00,Wunderground v.1.15,2013-03-09 17:30:00,
2013-03-09 12:35:00,47.7,24.5,30.31,NNW,348,3.0,4.0,40,0.00,,,0.00,Wunderground v.1.15,2013-03-09 17:35:00,
2013-03-09 12:40:00,47.9,23.5,30.31,NW,308,0.0,2.0,38,0.00,,,0.00,Wunderground v.1.15,2013-03-09 17:40:00,
2013-03-09 12:45:00,48.0,24.2,30.31,NNE,25,2.0,3.0,39,0.00,,,0.00,Wunderground v.1.15,2013-03-09 17:45:00,
2013-03-09 12:50:00,48.5,22.7,30.31,NW,304,2.0,3.0,36,0.00,,,0.00,Wunderground v.1.15,2013-03-09 17:50:00,
2013-03-09 12:56:00,48.8,24.9,30.30,East,88,0.0,5.0,39,0.00,,,0.00,Wunderground v.1.15,2013-03-09 17:56:00,
2013-03-09 13:00:00,51.6,23.5,30.27,NNW,338,2.0,4.0,33,0.00,,---,0.00,VWS V14.01,2013-03-09 18:00:00,
2013-03-09 13:01:00,48.8,27.3,30.30,West,278,3.0,3.0,43,0.00,,,0.00,Wunderground v.1.15,2013-03-09 18:01:00,
2013-03-09 13:06:00,48.9,25.0,30.30,NNE,26,0.0,3.0,39,0.00,,,0.00,Wunderground v.1.15,2013-03-09 18:06:00,
2013-03-09 13:30:00,52.3,21.0,30.27,NW,315,2.0,5.0,29,0.00,,---,0.00,VWS V14.01,2013-03-09 18:30:00,
2013-03-09 14:00:00,53.3,23.5,30.27,North,0,2.0,5.0,31,0.00,,---,0.00,VWS V14.01,2013-03-09 19:00:00,
2013-03-09 14:30:00,53.5,21.2,30.26,SW,225,2.0,5.0,28,0.00,,---,0.00,VWS V14.01,2013-03-09 19:30:00,
2013-03-09 15:00:00,53.5,20.4,30.25,SW,225,2.0,6.0,27,0.00,,---,0.00,VWS V14.01,2013-03-09 20:00:00,
2013-03-09 15:30:00,54.1,21.7,30.25,NNW,338,1.0,3.0,28,0.00,,---,0.00,VWS V14.01,2013-03-09 20:30:00,
2013-03-09 15:36:00,54.1,20.8,30.26,SW,216,2.0,2.0,27,0.00,,,0.00,Wunderground v.1.15,2013-03-09 20:36:00,
2013-03-09 15:41:00,54.4,20.2,30.26,SW,232,4.0,4.0,26,0.00,,,0.00,Wunderground v.1.15,2013-03-09 20:41:00,
2013-03-09 15:46:00,54.1,21.7,30.25,SW,234,0.0,4.0,28,0.00,,,0.00,Wunderground v.1.15,2013-03-09 20:46:00,
2013-03-09 15:51:00,53.8,18.7,30.25,ESE,116,3.0,3.0,25,0.00,,,0.00,Wunderground v.1.15,2013-03-09 20:51:00,
2013-03-09 15:56:00,53.6,19.5,30.25,East,99,0.0,3.0,26,0.00,,,0.00,Wunderground v.1.15,2013-03-09 20:56:00,
2013-03-09 16:00:00,53.1,24.0,30.25,SE,135,1.0,3.0,32,0.00,,---,0.00,VWS V14.01,2013-03-09 21:00:00,
2013-03-09 16:01:00,53.5,19.4,30.25,South,189,0.0,1.0,26,0.00,,,0.00,Wunderground v.1.15,2013-03-09 21:01:00,
2013-03-09 16:06:00,53.3,21.8,30.25,SSE,148,2.0,3.0,29,0.00,,,0.00,Wunderground v.1.15,2013-03-09 21:06:00,
2013-03-09 16:11:00,53.2,18.2,30.25,North,355,1.0,2.0,25,0.00,,,0.00,Wunderground v.1.15,2013-03-09 21:11:00,
2013-03-09 16:16:00,53.5,20.3,30.25,NNW,340,3.0,3.0,27,0.00,,,0.00,Wunderground v.1.15,2013-03-09 21:16:00,
2013-03-09 16:21:00,53.9,20.6,30.25,NNW,340,0.0,2.0,27,0.00,,,0.00,Wunderground v.1.15,2013-03-09 21:21:00,
2013-03-09 16:26:00,54.1,20.8,30.25,NW,305,0.0,2.0,27,0.00,,,0.00,Wunderground v.1.15,2013-03-09 21:26:00,
2013-03-09 16:30:00,52.2,20.9,30.25,South,180,1.0,3.0,29,0.00,,---,0.00,VWS V14.01,2013-03-09 21:30:00,
2013-03-09 16:31:00,54.1,24.1,30.25,NNE,17,1.0,1.0,31,0.00,,,0.00,Wunderground v.1.15,2013-03-09 21:31:00,
2013-03-09 16:36:00,54.1,21.7,30.25,NE,55,1.0,3.0,28,0.00,,,0.00,Wunderground v.1.15,2013-03-09 21:36:00,
2013-03-09 16:41:00,53.9,20.6,30.25,ENE,63,1.0,2.0,27,0.00,,,0.00,Wunderground v.1.15,2013-03-09 21:41:00,
2013-03-09 16:46:00,53.6,21.2,30.25,SE,128,2.0,3.0,28,0.00,,,0.00,Wunderground v.1.15,2013-03-09 21:46:00,
2013-03-09 16:51:00,53.3,21.0,30.25,SE,143,2.0,3.0,28,0.00,,,0.00,Wunderground v.1.15,2013-03-09 21:51:00,
2013-03-09 16:56:00,53.2,19.2,30.25,SSE,151,1.0,3.0,26,0.00,,,0.00,Wunderground v.1.15,2013-03-09 21:56:00,
2013-03-09 17:00:00,51.0,20.7,30.25,SSE,158,0.0,3.0,30,0.00,,---,0.00,VWS V14.01,2013-03-09 22:00:00,
2013-03-09 17:01:00,53.1,20.8,30.25,SSE,163,1.0,2.0,28,0.00,,,0.00,Wunderground v.1.15,2013-03-09 22:01:00,
2013-03-09 17:06:00,52.8,19.7,30.25,South,173,1.0,3.0,27,0.00,,,0.00,Wunderground v.1.15,2013-03-09 22:06:00,
2013-03-09 17:11:00,52.6,19.5,30.24,South,173,0.0,1.0,27,0.00,,,0.00,Wunderground v.1.15,2013-03-09 22:11:00,
2013-03-09 17:16:00,52.5,20.3,30.24,SW,215,1.0,3.0,28,0.00,,,0.00,Wunderground v.1.15,2013-03-09 22:16:00,
2013-03-09 17:21:00,52.5,20.3,30.25,SW,215,1.0,2.0,28,0.00,,,0.00,Wunderground v.1.15,2013-03-09 22:21:00,
2013-03-09 17:26:00,52.2,19.2,30.25,SW,215,0.0,2.0,27,0.00,,,0.00,Wunderground v.1.15,2013-03-09 22:26:00,
2013-03-09 17:30:00,48.9,26.2,30.26,SSE,158,0.0,0.0,41,0.00,,---,0.00,VWS V14.01,2013-03-09 22:30:00,
2013-03-09 17:31:00,52.0,19.9,30.25,SSE,150,2.0,3.0,28,0.00,,,0.00,Wunderground v.1.15,2013-03-09 22:31:00,
2013-03-09 17:36:00,51.9,19.8,30.25,SSE,151,0.0,3.0,28,0.00,,,0.00,Wunderground v.1.15,2013-03-09 22:36:00,
2013-03-09 17:41:00,51.7,17.9,30.25,SSE,151,0.0,1.0,26,0.00,,,0.00,Wunderground v.1.15,2013-03-09 22:41:00,
2013-03-09 17:46:00,51.6,17.8,30.25,SSE,151,2.0,2.0,26,0.00,,,0.00,Wunderground v.1.15,2013-03-09 22:46:00,
2013-03-09 17:51:00,51.4,19.3,30.25,SSE,151,1.0,1.0,28,0.00,,,0.00,Wunderground v.1.15,2013-03-09 22:51:00,
2013-03-09 17:56:00,51.1,19.1,30.25,SSE,151,0.0,1.0,28,0.00,,,0.00,Wunderground v.1.15,2013-03-09 22:56:00,
2013-03-09 18:00:00,46.0,24.8,30.26,SSE,158,0.0,0.0,43,0.00,,---,0.00,VWS V14.01,2013-03-09 23:00:00,
2013-03-09 18:01:00,50.8,20.4,30.25,SSE,151,0.0,0.0,30,0.00,,,0.00,Wunderground v.1.15,2013-03-09 23:01:00,
2013-03-09 18:06:00,50.5,20.2,30.25,SSE,151,0.0,0.0,30,0.00,,,0.00,Wunderground v.1.15,2013-03-09 23:06:00,
2013-03-09 18:11:00,50.1,19.8,30.25,SSE,151,0.0,0.0,30,0.00,,,0.00,Wunderground v.1.15,2013-03-09 23:11:00,
2013-03-09 18:17:00,49.8,21.1,30.25,SSE,151,0.0,0.0,32,0.00,,,0.00,Wunderground v.1.15,2013-03-09 23:17:00,
2013-03-09 18:22:00,49.5,26.1,30.26,SSE,151,0.0,0.0,40,0.00,,,0.00,Wunderground v.1.15,2013-03-09 23:22:00,
2013-03-09 18:27:00,49.2,25.9,30.26,SSE,151,0.0,0.0,40,0.00,,,0.00,Wunderground v.1.15,2013-03-09 23:27:00,
2013-03-09 18:30:00,43.5,26.6,30.26,SSE,158,0.0,0.0,51,0.00,,---,0.00,VWS V14.01,2013-03-09 23:30:00,
2013-03-09 18:32:00,48.8,26.1,30.26,SSE,151,0.0,0.0,41,0.00,,,0.00,Wunderground v.1.15,2013-03-09 23:32:00,
2013-03-09 18:37:00,48.3,26.8,30.26,SSE,151,0.0,0.0,43,0.00,,,0.00,Wunderground v.1.15,2013-03-09 23:37:00,
2013-03-09 18:42:00,47.7,26.8,30.26,SSE,151,0.0,0.0,44,0.00,,,0.00,Wunderground v.1.15,2013-03-09 23:42:00,
2013-03-09 18:47:00,47.3,24.8,30.26,SSE,151,0.0,0.0,41,0.00,,,0.00,Wunderground v.1.15,2013-03-09 23:47:00,
2013-03-09 18:52:00,46.7,23.6,30.26,SSE,151,0.0,0.0,40,0.00,,,0.00,Wunderground v.1.15,2013-03-09 23:52:00,
2013-03-09 18:57:00,46.2,24.3,30.26,SSE,151,0.0,0.0,42,0.00,,,0.00,Wunderground v.1.15,2013-03-09 23:57:00,
2013-03-09 19:00:00,41.1,27.5,30.27,SSE,158,0.0,1.0,58,0.00,,---,0.00,VWS V14.01,2013-03-10 00:00:00,
2013-03-09 19:02:00,45.8,24.5,30.26,SSE,151,0.0,0.0,43,0.00,,,0.00,Wunderground v.1.15,2013-03-10 00:02:00,
2013-03-09 19:07:00,45.5,26.4,30.26,SSE,151,0.0,0.0,47,0.00,,,0.00,Wunderground v.1.15,2013-03-10 00:07:00,
2013-03-09 19:12:00,45.1,27.6,30.26,SSE,151,0.0,0.0,50,0.00,,,0.00,Wunderground v.1.15,2013-03-10 00:12:00,
2013-03-09 19:17:00,44.5,27.5,30.26,SSE,151,0.0,0.0,51,0.00,,,0.00,Wunderground v.1.15,2013-03-10 00:17:00,
2013-03-09 19:22:00,44.1,26.6,30.26,SSE,151,0.0,0.0,50,0.00,,,0.00,Wunderground v.1.15,2013-03-10 00:22:00,
2013-03-09 19:27:00,43.8,26.3,30.26,SSE,151,0.0,0.0,50,0.00,,,0.00,Wunderground v.1.15,2013-03-10 00:27:00,
2013-03-09 19:30:00,39.2,28.1,30.27,SSE,158,0.0,0.0,64,0.00,,---,0.00,VWS V14.01,2013-03-10 00:30:00,
2013-03-09 19:32:00,43.3,27.8,30.27,SSE,151,1.0,1.0,54,0.00,,,0.00,Wunderground v.1.15,2013-03-10 00:32:00,
2013-03-09 19:37:00,42.8,28.6,30.27,SSE,151,0.0,1.0,57,0.00,,,0.00,Wunderground v.1.15,2013-03-10 00:37:00,
2013-03-09 19:42:00,42.3,27.7,30.27,SSE,151,0.0,0.0,56,0.00,,,0.00,Wunderground v.1.15,2013-03-10 00:42:00,
2013-03-09 19:47:00,41.9,27.8,30.27,SSE,151,0.0,0.0,57,0.00,,,0.00,Wunderground v.1.15,2013-03-10 00:47:00,
2013-03-09 19:52:00,41.6,28.3,30.27,SSE,151,0.0,0.0,59,0.00,,,0.00,Wunderground v.1.15,2013-03-10 00:52:00,
2013-03-09 19:57:00,41.3,28.4,30.27,SSE,151,0.0,0.0,60,0.00,,,0.00,Wunderground v.1.15,2013-03-10 00:57:00,
2013-03-09 20:00:00,37.6,28.0,30.28,SSE,158,0.0,1.0,68,0.00,,---,0.00,VWS V14.01,2013-03-10 01:00:00,
2013-03-09 20:02:00,40.9,27.2,30.27,SSE,151,0.0,0.0,58,0.00,,,0.00,Wunderground v.1.15,2013-03-10 01:02:00,
2013-03-09 20:07:00,40.6,28.2,30.27,SSE,151,0.0,0.0,61,0.00,,,0.00,Wunderground v.1.15,2013-03-10 01:07:00,
2013-03-09 20:12:00,40.3,28.3,30.27,SSE,151,0.0,0.0,62,0.00,,,0.00,Wunderground v.1.15,2013-03-10 01:12:00,
2013-03-09 20:17:00,39.9,27.9,30.27,SSE,151,0.0,0.0,62,0.00,,,0.00,Wunderground v.1.15,2013-03-10 01:17:00,
2013-03-09 20:22:00,39.6,27.6,30.27,SSE,151,0.0,0.0,62,0.00,,,0.00,Wunderground v.1.15,2013-03-10 01:22:00,
2013-03-09 20:27:00,39.3,27.7,30.27,SSE,151,0.0,0.0,63,0.00,,,0.00,Wunderground v.1.15,2013-03-10 01:27:00,
2013-03-09 20:30:00,36.3,28.1,30.28,SSE,158,0.0,1.0,72,0.00,,---,0.00,VWS V14.01,2013-03-10 01:30:00,
2013-03-09 20:32:00,39.1,27.9,30.27,SSE,151,0.0,0.0,64,0.00,,,0.00,Wunderground v.1.15,2013-03-10 01:32:00,
2013-03-09 20:37:00,38.8,27.7,30.27,SSE,151,0.0,0.0,64,0.00,,,0.00,Wunderground v.1.15,2013-03-10 01:37:00,
2013-03-09 20:42:00,38.3,27.2,30.27,SSE,151,0.0,0.0,64,0.00,,,0.00,Wunderground v.1.15,2013-03-10 01:42:00,
2013-03-09 20:47:00,38.2,28.2,30.28,SSE,151,1.0,1.0,67,0.00,,,0.00,Wunderground v.1.15,2013-03-10 01:47:00,
2013-03-09 20:52:00,37.9,27.9,30.28,SSE,151,0.0,1.0,67,0.00,,,0.00,Wunderground v.1.15,2013-03-10 01:52:00,
2013-03-09 20:57:00,37.8,28.2,30.28,SSE,151,0.0,1.0,68,0.00,,,0.00,Wunderground v.1.15,2013-03-10 01:57:00,
2013-03-09 21:00:00,35.6,27.5,30.28,South,180,0.0,2.0,72,0.00,,---,0.00,VWS V14.01,2013-03-10 02:00:00,
2013-03-09 21:02:00,37.5,27.9,30.27,SSE,151,0.0,0.0,68,0.00,,,0.00,Wunderground v.1.15,2013-03-10 02:02:00,
2013-03-09 21:07:00,37.3,28.4,30.27,SSE,151,0.0,1.0,70,0.00,,,0.00,Wunderground v.1.15,2013-03-10 02:07:00,
2013-03-09 21:12:00,37.0,27.8,30.27,SSE,151,0.0,0.0,69,0.00,,,0.00,Wunderground v.1.15,2013-03-10 02:12:00,
2013-03-09 21:17:00,36.9,27.7,30.28,SSE,151,0.0,1.0,69,0.00,,,0.00,Wunderground v.1.15,2013-03-10 02:17:00,
2013-03-09 21:22:00,36.6,27.7,30.28,SSE,151,0.0,0.0,70,0.00,,,0.00,Wunderground v.1.15,2013-03-10 02:22:00,
2013-03-09 21:27:00,36.5,28.0,30.28,SSE,151,0.0,0.0,71,0.00,,,0.00,Wunderground v.1.15,2013-03-10 02:27:00,
2013-03-09 21:30:00,34.9,27.1,30.28,SW,225,0.0,2.0,73,0.00,,---,0.00,VWS V14.01,2013-03-10 02:30:00,
2013-03-09 21:32:00,36.2,28.4,30.28,SSE,151,0.0,0.0,73,0.00,,,0.00,Wunderground v.1.15,2013-03-10 02:32:00,
2013-03-09 21:37:00,36.0,28.2,30.28,SSE,151,0.0,0.0,73,0.00,,,0.00,Wunderground v.1.15,2013-03-10 02:37:00,
2013-03-09 21:42:00,35.9,28.4,30.28,South,190,1.0,2.0,74,0.00,,,0.00,Wunderground v.1.15,2013-03-10 02:42:00,
2013-03-09 21:47:00,35.9,28.4,30.28,South,190,0.0,2.0,74,0.00,,,0.00,Wunderground v.1.15,2013-03-10 02:47:00,
2013-03-09 21:52:00,35.8,28.0,30.28,South,190,1.0,2.0,73,0.00,,,0.00,Wunderground v.1.15,2013-03-10 02:52:00,
2013-03-09 21:57:00,35.6,27.5,30.28,SSW,198,0.0,2.0,72,0.00,,,0.00,Wunderground v.1.15,2013-03-10 02:57:00,
2013-03-09 22:00:00,34.4,26.7,30.28,SW,225,1.0,2.0,73,0.00,,---,0.00,VWS V14.01,2013-03-10 03:00:00,
2013-03-09 22:02:00,35.5,27.4,30.28,SSW,198,0.0,0.0,72,0.00,,,0.00,Wunderground v.1.15,2013-03-10 03:02:00,
2013-03-09 22:07:00,35.5,28.0,30.28,SSW,213,0.0,2.0,74,0.00,,,0.00,Wunderground v.1.15,2013-03-10 03:07:00,
2013-03-09 22:12:00,35.3,27.8,30.28,SSW,213,0.0,0.0,74,0.00,,,0.00,Wunderground v.1.15,2013-03-10 03:12:00,
2013-03-09 22:17:00,35.2,27.4,30.28,SSW,213,0.0,0.0,73,0.00,,,0.00,Wunderground v.1.15,2013-03-10 03:17:00,
2013-03-09 22:22:00,35.0,27.9,30.28,SSW,213,0.0,0.0,75,0.00,,,0.00,Wunderground v.1.15,2013-03-10 03:22:00,
2013-03-09 22:28:00,35.0,27.9,30.28,SW,229,1.0,2.0,75,0.00,,,0.00,Wunderground v.1.15,2013-03-10 03:28:00,
2013-03-09 22:30:00,33.2,26.5,30.28,West,270,0.0,1.0,76,0.00,,---,0.00,VWS V14.01,2013-03-10 03:30:00,
2013-03-09 22:33:00,34.9,27.1,30.28,SW,229,0.0,1.0,73,0.00,,,0.00,Wunderground v.1.15,2013-03-10 03:33:00,
2013-03-09 22:38:00,34.9,27.1,30.28,SW,229,1.0,2.0,73,0.00,,,0.00,Wunderground v.1.15,2013-03-10 03:38:00,
2013-03-09 22:43:00,34.9,26.8,30.28,West,266,0.0,2.0,72,0.00,,,0.00,Wunderground v.1.15,2013-03-10 03:43:00,
2013-03-09 22:48:00,34.7,26.9,30.28,West,266,0.0,2.0,73,0.00,,,0.00,Wunderground v.1.15,2013-03-10 03:48:00,
2013-03-09 22:53:00,34.6,26.8,30.28,West,266,0.0,1.0,73,0.00,,,0.00,Wunderground v.1.15,2013-03-10 03:53:00,
2013-03-09 22:58:00,34.4,26.6,30.28,West,266,0.0,1.0,73,0.00,,,0.00,Wunderground v.1.15,2013-03-10 03:58:00,
2013-03-09 23:00:00,32.4,25.7,30.28,SW,225,1.0,4.0,76,0.00,,---,0.00,VWS V14.01,2013-03-10 04:00:00,
2013-03-09 23:03:00,34.3,26.5,30.28,West,266,0.0,0.0,73,0.00,,,0.00,Wunderground v.1.15,2013-03-10 04:03:00,
2013-03-09 23:08:00,34.1,26.7,30.28,West,266,0.0,1.0,74,0.00,,,0.00,Wunderground v.1.15,2013-03-10 04:08:00,
2013-03-09 23:13:00,33.8,26.7,30.28,West,266,0.0,0.0,75,0.00,,,0.00,Wunderground v.1.15,2013-03-10 04:13:00,
2013-03-09 23:18:00,33.7,26.6,30.28,West,266,0.0,0.0,75,0.00,,,0.00,Wunderground v.1.15,2013-03-10 04:18:00,
2013-03-09 23:23:00,33.5,26.4,30.28,West,266,0.0,0.0,75,0.00,,,0.00,Wunderground v.1.15,2013-03-10 04:23:00,
2013-03-09 23:28:00,33.4,26.6,30.28,West,266,0.0,0.0,76,0.00,,,0.00,Wunderground v.1.15,2013-03-10 04:28:00,
2013-03-09 23:30:00,31.9,25.2,30.27,SW,225,0.0,2.0,76,0.00,,---,0.00,VWS V14.01,2013-03-10 04:30:00,
2013-03-09 23:33:00,33.2,26.5,30.28,West,266,0.0,0.0,76,0.00,,,0.00,Wunderground v.1.15,2013-03-10 04:33:00,
2013-03-09 23:38:00,33.1,26.7,30.28,West,264,1.0,3.0,77,0.00,,,0.00,Wunderground v.1.15,2013-03-10 04:38:00,
2013-03-09 23:43:00,32.8,26.1,30.28,WSW,257,2.0,2.0,76,0.00,,,0.00,Wunderground v.1.15,2013-03-10 04:43:00,
2013-03-09 23:48:00,32.7,26.0,30.28,SW,226,2.0,3.0,76,0.00,,,0.00,Wunderground v.1.15,2013-03-10 04:48:00,
2013-03-09 23:53:00,32.7,26.0,30.28,SW,230,0.0,2.0,76,0.00,,,0.00,Wunderground v.1.15,2013-03-10 04:53:00,
2013-03-09 23:58:00,32.5,25.8,30.28,SW,218,1.0,3.0,76,0.00,,,0.00,Wunderground v.1.15,2013-03-10 04:58:00,